sat.trackr.live / text

‹ back to catalog

STARLINK-2147

NORAD 47736 · 2021-017Q

PAYLOAD ACTIVE UNKNOWN

§ Identity

Operator
Country
US
Launch date
2021-03-04
Launch site
AFETR
Launch vehicle
Mass (kg)
RCS (m²)

Purposes: comms

External: N2YO · Heavens-Above · Gunter

§ Orbital elements

Epoch: 2026-05-25T03:19:40.695744Z

Period
93.37 min
Inclination
53.0727°
Eccentricity
0.0004975
Mean motion
15.42320570 rev/d
Perigee alt
435.9 km
Apogee alt
442.7 km
Semi-major
6,817.4 km
B*
1.0991e-3
RAAN
204.4900°
Arg perigee
358.0201°
Mean anomaly
2.0784°
Rev number
28,964

§ Raw data

STARLINK-21471 47736U 21017Q   26145.13866546  .00047992  00000+0  10991-2 0  99972 47736  53.0727 204.4900 0004975 358.0201   2.0784 15.42320570289645

JSON: /api/v1/satellites/47736 · /tle

For live sub-satellite position, see the globe view (requires WebGL).

§ Visibility from observer

Set your observer location to see the next 7 days of passes ≥ 10°. The values pass through the URL so the page stays shareable.

No JS? Fill the form by hand. The geolocation button needs JavaScript.